Location: Hastringsfeld
(50.9620°N, 10.4787°E)
Time: 10:09:14
(UTC+00:00)

Cosmos 2322 Rocket - Pass Details

Date: 26 September 2023
Orbit: 830 x 852 km, 71.0° (Epoch: 09 December)

Event Time Altitude Azimuth Distance (km) Brightness Sun altitude
Rises 03:43:56 0° 324° (NW) 3,397 5.1 -14.2°
Reaches altitude 10° 03:46:38 10° 313° (NW) 2,462 4.3 -13.8°
Maximum altitude 03:51:25 29° 255° (WSW) 1,489 2.9 -13.1°
Drops below altitude 10° 03:56:13 10° 197° (SSW) 2,459 4.3 -12.3°
Sets 03:58:56 0° 186° (S) 3,393 5.1 -11.9°
